CAPE
5 2 4 3 0 0 0 0 0 0 0 0 0 0 0 0 0 0 0 0 0 0 0 0 0 0 0 0 0 0 0 0 0 0 0 0 0 0 0 0 88 214 74 67 176
0 1 1 2 2 0 0 0 0 0 0 0 0 0 0 0 0 0 0 0 0 0 0 0 0 0 0 0 0 0 0 0 0 0 0 0 0 0 0 0 0 27 27 113 213
0 0 0 0 0 4 0 0 0 0 0 0 0 0 0 0 0 0 0 0 0 0 0 0 0 0 0 0 0 0 0 0 0 0 0 0 0 0 0 0 0 0 41 164 300
0 0 0 0 0 0 1 0 0 0 0 0 0 0 0 0 0 0 0 0 0 0 0 0 0 0 0 0 0 0 0 0 0 0 0 0 0 0 0 0 0 1 39 155 278
0 0 0 0 0 0 0 2 0 0 0 0 0 0 0 0 0 0 0 0 0 0 0 0 0 0 0 0 0 0 0 0 0 0 0 0 0 0 0 0 0 0 35 115 201
0 2 9 0 0 0 0 0 4 0 0 0 0 0 1 0 0 0 0 0 0 0 0 0 0 0 0 0 0 0 0 0 0 0 0 0 0 0 0 0 0 0 0 30 74
12 12 20 1 0 0 0 0 1 0 0 0 0 0 5 0 0 0 0 0 0 0 0 0 0 0 0 0 0 0 0 0 0 0 0 0 0 0 0 0 0 0 0 0 0
22 15 11 1 0 0 0 0 0 0 0 0 0 0 0 1 0 0 0 0 0 0 0 0 0 0 0 0 0 0 0 0 0 0 0 0 0 0 0 0 0 0 0 0 0
20 16 9 6 2 0 0 0 0 0 4 0 0 0 0 7 0 0 0 0 0 0 0 0 0 0 0 0 0 0 0 0 0 0 0 0 0 0 0 0 0 0 0 0 0
3 10 12 9 8 10 3 0 2 13 3 18 3 0 0 3 0 0 0 0 0 0 0 0 0 0 0 0 0 0 0 0 0 0 0 0 0 0 0 0 0 0 0 0 0
4 7 16 25 31 25 24 0 11 0 0 0 0 0 0 0 0 0 0 0 0 0 0 0 0 0 0 0 0 0 0 0 0 0 0 0 0 0 0 0 0 0 0 0 0
10 22 11 25 38 24 25 13 20 17 1 0 0 0 0 0 0 0 0 0 0 0 0 0 0 0 0 0 0 0 0 0 0 0 0 0 0 0 0 0 0 0 0 0 0
3 12 8 13 26 25 18 1 0 1 10 0 0 0 0 0 0 0 0 0 0 0 0 0 0 0 0 0 0 0 0 0 0 0 0 0 0 0 0 0 0 0 0 0 0
15 9 3 1 2 20 8 0 0 2 24 0 0 0 0 0 0 0 0 0 0 0 0 0 0 0 0 0 0 0 0 0 0 0 0 0 0 0 0 0 0 0 0 0 0
17 10 4 25 10 0 10 0 2 9 12 0 0 0 0 0 0 0 0 11 0 0 0 0 0 0 0 0 0 0 0 0 0 0 0 0 0 0 0 0 0 0 0 0 0
7 7 7 0 9 0 1 6 25 35 1 0 0 0 0 0 0 0 31 0 0 1 0 0 0 0 0 0 0 0 0 0 0 0 0 0 0 0 0 0 0 0 0 0 0
4 0 11 13 1 0 31 45 8 4 0 0 0 0 0 0 0 0 16 18 4 9 0 0 0 0 0 0 0 0 0 0 0 0 0 0 0 0 0 0 0 0 0 0 0
9 0 0 0 0 0 0 1 1 0 0 0 0 10 0 0 0 0 0 6 11 20 0 0 0 0 0 0 0 0 0 0 0 0 0 0 0 0 0 0 0 0 0 0 0
9 0 0 0 0 3 4 0 0 0 0 0 0 0 13 27 12 4 0 0 0 1 0 0 0 0 0 0 0 0 0 0 0 0 0 0 0 0 0 0 0 0 0 0 0
0 2 0 0 0 1 3 0 0 0 0 0 0 0 0 15 25 40 4 0 0 0 0 0 0 0 0 0 0 0 0 0 0 0 0 0 0 0 0 0 0 0 0 0 0
0 1 0 0 3 9 5 2 0 0 0 0 0 0 0 0 24 25 38 1 0 0 19 0 1 0 0 0 0 0 0 0 0 0 0 0 0 0 0 0 0 0 0 0 0
4 0 0 0 38 12 1 2 0 0 0 0 0 6 0 0 0 0 1 32 97 55 40 1 9 2 0 0 0 0 0 0 0 0 0 0 0 0 0 0 0 0 0 0 0
1 1 0 6 1 1 1 2 3 1 3 0 0 0 4 22 4 4 0 0 3 0 10 2 51 15 2 0 0 0 0 0 0 0 0 0 0 0 0 0 0 0 0 0 0
2 0 0 2 0 0 0 2 8 4 1 0 0 2 0 0 1 0 1 0 1 0 0 3 7 33 0 0 0 0 0 0 0 0 0 0 0 0 0 0 0 0 0 0 0
3 0 0 0 0 0 1 0 0 2 5 13 0 0 0 0 6 0 0 0 0 15 6 18 1 0 0 3 0 0 0 0 0 0 0 0 0 0 0 0 0 0 0 0 0
0 6 4 3 0 0 0 1 0 0 2 1 0 0 2 3 0 0 0 0 0 16 44 22 14 13 3 0 1 0 0 0 0 0 0 0 0 0 0 0 0 0 0 0 0
7 15 6 0 1 2 0 0 0 4 0 9 10 6 10 0 0 0 7 1 2 3 28 18 10 8 0 0 0 0 0 0 0 0 0 0 0 0 0 0 0 0 0 0 0
CIN
-0 -0 -0 -0 -0 -0 -0 -0 -0 -0 -0 -0 -0 -0 -0 -0 -0 -0 -0 -0 -0 -0 -0 -0 -0 -0 -0 -0 -0 -0 -0 -0 -0 -0 -0 -0 -0 -0 -0 -0 -157 -157 -219 -299 -386
-0 -0 -0 -0 -1 -0 -0 -0 -0 -0 -0 -0 -0 -0 -0 -0 -0 -0 -0 -0 -0 -0 -0 -0 -0 -0 -0 -0 -0 -0 -0 -0 -0 -0 -0 -0 -0 -0 -0 -0 -0 -176 -303 -342 -407
-0 -0 -0 -0 -0 -1 -0 -0 -0 -0 -0 -0 -0 -0 -0 -0 -0 -0 -0 -0 -0 -0 -0 -0 -0 -0 -0 -0 -0 -0 -0 -0 -0 -0 -0 -0 -0 -0 -0 -0 -0 -0 -287 -330 -369
-0 -0 -0 -0 -0 -0 -1 -0 -0 -0 -0 -0 -0 -0 -0 -0 -0 -0 -0 -0 -0 -0 -0 -0 -0 -0 -0 -0 -0 -0 -0 -0 -0 -0 -0 -0 -0 -0 -0 -0 -0 -35 -320 -320 -337
-0 -0 -0 -0 -0 -0 -0 -3 -0 -0 -0 -0 -0 -0 -0 -0 -0 -0 -0 -0 -0 -0 -0 -0 -0 -0 -0 -0 -0 -0 -0 -0 -0 -0 -0 -0 -0 -0 -0 -0 -0 -0 -321 -304 -298
-0 -0 -0 -0 -0 -0 -0 -0 -4 -0 -0 -0 -0 -0 -0 -0 -0 -0 -0 -0 -0 -0 -0 -0 -0 -0 -0 -0 -0 -0 -0 -0 -0 -0 -0 -0 -0 -0 -0 -0 -0 -0 -0 -309 -320
-0 -0 -0 -0 -0 -0 -0 -0 -3 -0 -0 -0 -0 -0 -0 -0 -0 -0 -0 -0 -0 -0 -0 -0 -0 -0 -0 -0 -0 -0 -0 -0 -0 -0 -0 -0 -0 -0 -0 -0 -0 -0 -0 -0 -0
-0 -0 -1 -2 -0 -0 -0 -0 -0 -0 -0 -0 -0 -0 -0 -0 -0 -0 -0 -0 -0 -0 -0 -0 -0 -0 -0 -0 -0 -0 -0 -0 -0 -0 -0 -0 -0 -0 -0 -0 -0 -0 -0 -0 -0
-0 -0 -1 -3 -4 -0 -0 -0 -0 -2 -2 -0 -0 -0 -0 -5 -0 -0 -0 -0 -0 -0 -0 -0 -0 -0 -0 -0 -0 -0 -0 -0 -0 -0 -0 -0 -0 -0 -0 -0 -0 -0 -0 -0 -0
-0 -0 -1 -5 -4 -8 -6 -0 -3 -3 -1 -3 -1 -0 -0 -0 -0 -0 -0 -0 -0 -0 -0 -0 -0 -0 -0 -0 -0 -0 -0 -0 -0 -0 -0 -0 -0 -0 -0 -0 -0 -0 -0 -0 -0
-0 -0 -1 -3 -7 -14 -4 -0 -1 -0 -0 -0 -0 -0 -0 -0 -0 -0 -0 -0 -0 -0 -0 -0 -0 -0 -0 -0 -0 -0 -0 -0 -0 -0 -0 -0 -0 -0 -0 -0 -0 -0 -0 -0 -0
-0 -0 -2 -2 -10 -13 -2 -0 -3 -2 -0 -0 -0 -0 -0 -0 -0 -0 -0 -0 -0 -0 -0 -0 -0 -0 -0 -0 -0 -0 -0 -0 -0 -0 -0 -0 -0 -0 -0 -0 -0 -0 -0 -0 -0
-0 -0 -3 -2 -11 -31 -8 -5 -0 -0 -1 -0 -0 -0 -0 -0 -0 -0 -0 -0 -0 -0 -0 -0 -0 -0 -0 -0 -0 -0 -0 -0 -0 -0 -0 -0 -0 -0 -0 -0 -0 -0 -0 -0 -0
-0 -0 -2 -8 -4 -14 -3 -0 -0 -4 -0 -0 -0 -0 -0 -0 -0 -0 -0 -0 -0 -0 -0 -0 -0 -0 -0 -0 -0 -0 -0 -0 -0 -0 -0 -0 -0 -0 -0 -0 -0 -0 -0 -0 -0
-0 -0 -4 -1 -0 -0 -5 -1 -17 -15 -2 -0 -0 -0 -0 -0 -0 -0 -0 -18 -0 -0 -0 -0 -0 -0 -0 -0 -0 -0 -0 -0 -0 -0 -0 -0 -0 -0 -0 -0 -0 -0 -0 -0 -0
-0 -0 -1 -0 -3 -0 -22 -6 -2 -9 -1 -0 -0 -0 -1 -0 -0 -0 -39 -15 -0 -1 -0 -0 -0 -0 -0 -0 -0 -0 -0 -0 -0 -0 -0 -0 -0 -0 -0 -0 -0 -0 -0 -0 -0
-0 -0 -2 -2 -0 -0 -14 -8 -5 -23 -0 -0 -0 -0 -0 -0 -0 -0 -28 -14 -7 -1 -0 -0 -0 -0 -0 -0 -0 -0 -0 -0 -0 -0 -0 -0 -0 -0 -0 -0 -0 -0 -0 -0 -0
-1 -0 -0 -0 -0 -0 -0 -0 -1 -0 -0 -0 -0 -14 -1 -0 -0 -0 -0 -33 -21 -4 -0 -0 -0 -0 -0 -0 -0 -0 -0 -0 -0 -0 -0 -0 -0 -0 -0 -0 -0 -0 -0 -0 -0
-0 -0 -1 -0 -0 -0 -0 -36 -0 -0 -0 -0 -0 -0 -20 -11 -7 -10 -0 -0 -0 -9 -0 -0 -0 -0 -0 -0 -0 -0 -0 -0 -0 -0 -0 -0 -0 -0 -0 -0 -0 -0 -0 -0 -0
-0 -1 -0 -0 -0 -1 -0 -0 -0 -0 -0 -0 -0 -0 -0 -41 -9 -1 -3 -0 -0 -0 -0 -0 -0 -0 -0 -0 -0 -0 -0 -0 -0 -0 -0 -0 -0 -0 -0 -0 -0 -0 -0 -0 -0
-0 -0 -0 -0 -7 -0 -0 -0 -0 -0 -0 -0 -0 -0 -0 -2 -19 -9 -18 -6 -0 -0 -29 -0 -8 -0 -0 -0 -0 -0 -0 -0 -0 -0 -0 -0 -0 -0 -0 -0 -0 -0 -0 -0 -0
-0 -0 -0 -0 -0 -1 -4 -1 -0 -0 -0 -0 -7 -26 -0 -0 -0 -0 -0 -1 -8 -11 -11 -1 -11 -5 -0 -0 -0 -0 -0 -0 -0 -0 -0 -0 -0 -0 -0 -0 -0 -0 -0 -0 -0
-2 -1 -0 -1 -0 -0 -1 -1 -0 -2 -15 -5 -0 -0 -4 -39 -30 -12 -0 -0 -7 -0 -19 -8 -7 -3 -7 -0 -0 -0 -0 -0 -0 -0 -0 -0 -0 -0 -0 -0 -0 -0 -0 -0 -0
-4 -0 -0 -6 -0 -0 -0 -1 -1 -1 -0 -0 -0 -10 -16 -0 -35 -0 -41 -6 -9 -0 -0 -4 -0 -7 -0 -0 -0 -0 -0 -0 -0 -0 -0 -0 -0 -0 -0 -0 -0 -0 -0 -0 -0
-5 -0 -0 -0 -0 -0 -0 -1 -1 -0 -0 -8 -0 -0 -0 -0 -58 -20 -0 -0 -0 -25 -16 -6 -4 -0 -0 -0 -0 -0 -0 -0 -0 -0 -0 -0 -0 -0 -0 -0 -0 -0 -0 -0 -0
-0 -2 -6 -4 -0 -0 -0 -0 -0 -0 -0 -0 -0 -0 -5 -1 -0 -0 -0 -0 -0 -60 -21 -21 -10 -10 -19 -0 -0 -0 -0 -0 -0 -0 -0 -0 -0 -0 -0 -0 -0 -0 -0 -0 -0
-3 -7 -3 -0 -2 -1 -0 -0 -0 -1 -0 -1 -2 -4 -1 -0 -0 -0 -46 -20 -47 -36 -28 -9 -4 -4 -0 -0 -0 -0 -0 -0 -0 -0 -0 -0 -0 -0 -0 -0 -0 -0 -0 -0 -0
Wind_Speed
29 30 32 32 32 33 35 34 33 33 33 34 34 34 35 36 38 33 36 29 29 29 28 29 27 26 25 24 23 20 23 23 17 16 18 16 10 12 12 9 8 9 11 14 18
31 32 33 33 34 34 34 35 35 34 35 35 35 35 35 35 35 40 35 36 35 31 32 30 30 27 27 25 23 21 24 23 19 14 23 21 15 14 11 9 9 9 10 16 18
32 32 34 34 34 35 34 35 36 36 35 35 36 35 34 33 36 36 26 30 32 30 28 29 28 27 28 26 25 25 32 32 30 30 28 20 19 21 8 7 4 6 11 13 16
34 34 34 35 35 35 36 35 35 36 36 35 35 35 34 29 39 22 18 19 19 20 23 27 27 28 29 31 28 35 36 33 32 30 26 28 18 24 21 12 5 6 11 11 11
35 36 36 36 36 36 36 36 36 36 36 36 34 34 32 36 39 25 24 26 27 23 25 28 30 29 33 31 33 37 37 37 34 35 27 24 30 25 26 24 8 3 6 12 11
36 36 36 37 37 36 37 36 34 34 35 35 35 34 36 51 35 37 31 31 29 28 30 26 28 27 34 36 36 37 43 44 40 35 28 21 24 25 24 24 26 11 4 11 13
36 37 36 37 38 37 37 36 36 35 34 34 34 34 45 56 33 37 42 38 33 32 33 32 26 29 29 34 31 32 39 40 37 30 26 24 31 24 26 30 35 35 17 8 15
36 37 37 38 37 37 37 36 36 35 34 33 32 35 54 39 38 44 39 44 39 35 35 35 29 31 32 30 34 35 35 42 32 31 28 27 42 34 28 31 37 36 33 16 10
36 37 37 38 38 38 37 36 36 34 33 32 33 35 54 36 45 46 44 43 41 38 34 33 30 33 33 36 38 37 44 42 38 30 31 30 43 40 44 36 36 36 32 18 14
37 38 38 38 38 37 37 35 34 32 30 28 30 38 45 43 40 41 38 39 39 37 37 34 33 40 37 38 46 42 41 42 43 36 36 42 45 47 45 37 29 24 38 17 15
37 38 39 39 37 35 33 30 32 33 31 36 32 43 38 31 36 38 33 37 38 38 45 37 44 54 48 42 39 36 40 44 39 32 34 43 43 48 47 38 30 26 24 17 14
38 38 39 39 37 35 31 30 25 25 39 37 44 46 46 42 41 39 30 40 42 50 41 43 57 53 41 41 42 45 49 52 45 40 38 43 46 42 47 36 24 20 16 15 23
37 37 37 37 37 33 33 33 31 29 37 38 36 42 45 42 51 47 33 39 48 49 46 49 50 43 43 44 46 47 49 48 47 39 41 42 51 44 40 32 25 20 18 24 26
33 35 35 35 32 28 32 27 28 23 40 44 38 41 38 40 53 43 43 37 46 56 49 51 49 43 46 51 44 53 45 42 42 40 46 25 50 46 39 38 32 27 26 25 32
25 31 33 29 31 28 24 21 17 17 47 32 36 27 31 39 42 53 41 40 50 49 45 58 51 53 50 51 43 52 40 40 40 45 45 47 44 52 40 42 41 35 31 33 39
14 19 27 29 24 28 27 24 18 29 47 31 23 29 32 40 46 36 42 42 39 49 48 56 44 44 56 49 41 42 42 40 41 41 51 52 42 60 45 39 39 37 39 40 44
13 10 8 11 30 28 22 20 28 37 28 30 27 25 32 38 45 50 42 47 54 53 56 58 57 54 45 54 47 42 40 48 51 53 57 45 46 50 31 36 42 44 45 54 47
10 8 6 12 33 32 26 27 31 30 31 26 25 26 32 31 38 47 57 55 48 50 50 59 62 55 48 53 49 52 46 48 55 53 56 37 50 48 40 44 44 44 43 45 44
12 8 3 10 18 17 24 32 26 24 27 31 30 32 36 32 29 37 51 60 51 47 53 52 58 40 51 52 45 52 53 51 53 42 44 49 58 49 47 48 51 52 47 44 39
26 15 7 9 12 5 19 24 28 24 24 23 39 28 37 34 31 33 39 46 61 50 52 52 54 53 51 44 50 52 50 51 48 61 63 54 53 47 36 37 33 38 39 36 35
22 20 14 10 11 11 13 24 29 29 30 21 35 38 34 30 36 38 31 34 36 49 49 53 53 48 41 53 56 54 57 50 48 52 59 63 63 45 46 42 37 36 34 27 22
13 12 14 15 7 4 13 26 29 32 35 39 29 31 45 53 41 38 38 39 23 31 53 52 45 70 62 43 43 49 55 54 57 59 55 60 68 31 37 48 52 42 35 25 18
15 10 18 8 2 5 7 37 35 32 30 31 38 36 36 34 38 41 46 42 39 32 29 44 52 61 58 58 60 53 54 50 50 53 62 64 71 50 57 44 32 37 33 22 18
15 14 11 15 14 14 4 6 28 36 46 41 42 42 44 45 41 38 40 32 32 39 34 29 39 50 71 63 49 52 55 57 53 59 60 61 64 55 48 49 50 42 39 35 23
14 13 12 7 15 26 25 23 10 28 32 34 36 46 45 45 44 46 46 45 40 33 35 39 38 37 44 46 52 52 55 52 56 58 60 60 65 62 54 47 46 49 43 42 44
14 15 13 8 7 21 25 21 28 28 27 33 40 47 37 48 51 49 44 42 43 33 34 34 43 37 41 39 41 47 55 56 58 56 55 58 63 61 54 49 52 49 42 39 34
13 13 12 13 13 11 27 34 33 30 33 38 39 42 42 48 45 50 47 51 45 41 42 43 42 46 58 46 47 51 51 50 54 58 54 62 62 57 61 56 52 51 51 48 37
Wind_Direction
308 304 300 298 296 294 289 289 290 289 286 285 291 289 289 290 285 282 267 272 271 272 276 274 275 277 275 264 260 266 262 257 273 293 303 294 321 315 334 45 24 36 86 113 119
308 305 302 300 296 294 293 289 287 288 286 285 285 289 286 291 283 269 273 270 267 271 268 267 265 272 267 263 263 260 257 257 267 291 289 294 301 302 323 340 13 45 61 109 121
308 305 302 300 299 295 293 291 289 286 286 285 284 285 287 289 277 273 281 274 265 270 270 268 268 268 263 265 260 262 255 250 260 272 282 295 288 281 329 343 38 78 114 123 130
307 303 301 299 298 297 293 292 289 287 285 285 283 283 281 279 258 275 286 287 282 276 273 266 263 260 260 259 263 258 257 257 264 273 280 278 293 274 282 323 17 89 128 131 139
307 302 298 297 296 295 294 291 289 287 285 284 284 282 274 263 256 272 280 283 281 276 269 265 260 258 257 261 263 259 257 257 264 271 273 277 269 276 269 277 337 25 140 157 162
306 302 298 296 296 294 292 291 289 288 285 283 283 280 266 257 265 264 275 277 275 273 269 268 265 265 261 258 259 263 259 257 260 270 273 269 276 277 275 278 280 316 202 183 182
306 303 299 297 295 294 292 290 287 287 286 284 283 277 261 253 267 266 265 265 270 270 267 265 271 262 265 259 264 266 264 263 261 269 274 274 271 272 277 278 270 272 291 230 206
307 304 300 299 297 294 291 289 287 285 285 284 283 275 259 265 265 262 267 261 263 267 266 263 270 266 262 265 262 263 265 257 263 266 270 274 266 269 277 279 275 274 276 281 252
308 305 303 300 297 294 292 288 287 285 283 283 279 271 261 268 257 258 259 259 257 262 264 263 264 259 259 255 256 257 255 256 261 267 270 271 271 270 267 277 277 275 278 274 268
311 307 304 302 298 295 292 287 286 285 282 279 275 267 262 259 261 258 259 253 253 257 256 253 254 250 250 247 246 251 254 257 259 264 268 266 271 260 262 273 280 279 275 266 263
317 310 306 302 298 297 293 288 279 276 270 264 267 258 267 265 269 258 252 247 248 249 244 245 244 242 244 247 253 258 257 257 262 266 270 266 274 266 262 272 273 280 282 274 268
319 312 306 301 297 293 288 273 278 289 273 269 264 262 261 266 260 256 252 243 238 241 244 245 242 244 251 250 252 254 255 256 263 266 271 269 268 277 271 270 255 261 262 261 278
322 315 309 303 297 287 278 271 275 294 275 271 266 262 257 256 253 250 249 243 239 240 240 241 246 247 246 248 249 252 253 257 260 268 270 271 268 271 277 271 264 262 270 277 278
332 321 314 308 297 289 274 276 271 281 269 265 263 263 256 253 251 250 248 247 242 239 240 246 246 249 244 246 247 250 254 260 263 264 261 271 266 267 271 268 268 272 275 281 280
348 333 318 313 297 280 278 283 271 265 260 269 261 265 256 245 251 243 245 244 241 240 239 242 243 242 245 245 245 252 257 259 263 262 265 262 268 263 268 266 264 272 276 279 277
352 349 332 314 300 273 272 277 257 250 254 267 264 253 249 247 244 250 239 239 247 245 246 245 248 246 244 248 250 255 259 261 262 262 259 257 262 259 263 265 267 272 273 272 269
348 338 334 328 281 262 270 262 246 248 259 261 263 254 249 248 244 237 237 233 234 237 240 242 243 246 249 246 248 249 249 251 254 252 254 258 260 260 272 268 268 271 272 263 273
339 297 270 218 245 247 252 250 247 254 252 269 265 259 252 252 249 238 235 238 239 238 242 240 243 241 242 243 243 241 243 247 250 254 255 258 257 258 267 268 269 276 277 274 272
286 360 21 189 178 253 245 247 253 258 260 256 263 258 250 254 255 242 238 238 239 236 238 240 245 250 243 244 243 244 244 249 257 261 262 256 258 265 265 267 269 275 274 271 272
354 8 62 118 127 167 251 260 256 259 275 266 249 264 250 250 252 249 242 245 240 243 242 248 252 248 248 246 247 247 248 249 249 251 254 257 258 258 264 267 270 282 276 269 273
3 359 32 56 121 154 222 259 260 260 263 284 253 253 257 257 253 251 255 255 256 243 246 248 249 249 252 241 242 244 246 248 253 251 253 255 256 258 259 263 271 284 289 271 263
34 28 14 340 128 171 209 266 267 262 260 260 271 266 255 250 259 259 255 255 275 253 246 245 252 246 247 251 253 253 249 247 248 248 254 255 254 271 260 261 263 271 288 277 253
24 29 345 349 29 186 199 257 263 263 264 266 262 262 265 265 263 261 258 256 254 259 263 248 247 248 250 251 253 252 249 251 253 253 251 252 254 257 259 271 272 264 276 282 251
29 26 36 336 328 325 273 238 223 264 255 263 261 261 261 262 264 264 259 262 261 257 260 255 254 249 245 248 253 250 251 251 252 252 254 253 258 257 259 257 258 264 268 269 269
30 28 26 22 325 306 306 307 228 276 270 267 268 257 257 262 263 261 259 259 262 266 260 250 257 256 258 260 258 255 255 256 254 253 254 257 256 256 258 260 261 264 270 273 269
20 17 18 347 327 313 299 302 293 290 281 273 263 259 268 259 256 260 263 263 261 265 262 266 260 259 261 259 261 258 257 259 258 259 258 257 259 258 260 262 260 261 268 272 269
17 11 7 357 343 324 299 286 285 290 285 271 270 266 267 260 264 262 265 263 266 265 263 262 263 260 256 262 262 261 259 261 261 259 261 257 260 263 259 260 261 263 264 262 270